UAL79 KBWI-CYXU

Flight info

Callsign UAL79
Flight time 1h 8m
Altitude 38000
Route LINSE2 JERES J211 JST DCT BEWEL DCT
Aircraft B77L/H-SDE1E2E3FGHIJ2J3J4J5M1RWXY/LB1D1

Departure

Time 2026-04-25 03:33
Airport Baltimore/Washington International Thurgood Marshall Airport (KBWI)

Arrival

Time 2026-04-25 04:42
Airport London International Airport (CYXU)
Time Latitude Longitude Altitude Speed Heading
2026-04-25 03:07 39.18215 -76.67513 162 ft 0 kts 324°
2026-04-25 03:31 39.18236 -76.67537 163 ft 10 kts 311°
2026-04-25 03:31 39.18217 -76.67618 165 ft 11 kts 230°
2026-04-25 03:31 39.18211 -76.67702 167 ft 11 kts 310°
2026-04-25 03:31 39.18270 -76.67770 167 ft 12 kts 319°
2026-04-25 03:32 39.18356 -76.67857 167 ft 21 kts 324°
2026-04-25 03:32 39.18480 -76.67972 165 ft 23 kts 324°
2026-04-25 03:32 39.18564 -76.68106 164 ft 19 kts 258°
2026-04-25 03:32 39.18466 -76.68131 164 ft 16 kts 147°
2026-04-25 03:33 39.18442 -76.68109 165 ft 7 kts 144°
2026-04-25 03:33 39.18136 -76.67826 169 ft 99 kts 144°
2026-04-25 03:33 39.17374 -76.67112 212 ft 165 kts 142°
2026-04-25 03:33 39.16449 -76.66275 1005 ft 164 kts 143°
2026-04-25 03:34 39.15467 -76.65596 1883 ft 160 kts 160°
2026-04-25 03:34 39.14478 -76.64797 2361 ft 184 kts 132°
2026-04-25 03:34 39.13776 -76.63288 2623 ft 217 kts 104°
2026-04-25 03:34 39.13999 -76.61268 3193 ft 231 kts 71°
2026-04-25 03:35 39.13788 -76.59713 4801 ft 160 kts 147°
2026-04-25 03:35 39.12702 -76.59181 5086 ft 186 kts 184°
2026-04-25 03:35 39.11406 -76.59428 5650 ft 182 kts 195°
2026-04-25 03:35 39.10242 -76.60085 6177 ft 193 kts 228°
2026-04-25 03:36 39.09712 -76.61718 6428 ft 217 kts 270°
2026-04-25 03:36 39.10242 -76.63655 6734 ft 245 kts 304°
2026-04-25 03:36 39.11369 -76.65369 7419 ft 254 kts 309°
2026-04-25 03:36 39.12564 -76.67108 8280 ft 263 kts 310°
2026-04-25 03:37 39.13785 -76.68883 9185 ft 270 kts 310°
2026-04-25 03:37 39.15023 -76.70690 10205 ft 272 kts 310°
2026-04-25 03:37 39.16310 -76.72583 10885 ft 291 kts 310°
2026-04-25 03:37 39.17721 -76.74671 11152 ft 324 kts 310°
2026-04-25 03:38 39.19246 -76.76942 11720 ft 345 kts 310°
2026-04-25 03:38 39.20836 -76.79318 12765 ft 353 kts 310°
2026-04-25 03:38 39.22457 -76.81750 13921 ft 359 kts 310°
2026-04-25 03:38 39.24084 -76.84197 14977 ft 364 kts 311°
2026-04-25 03:39 39.25747 -76.86704 16014 ft 369 kts 311°
2026-04-25 03:39 39.27417 -76.89224 16928 ft 378 kts 311°
2026-04-25 03:39 39.29151 -76.91845 17906 ft 384 kts 310°
2026-04-25 03:39 39.30881 -76.94465 18844 ft 388 kts 311°
2026-04-25 03:40 39.32656 -76.97154 19838 ft 390 kts 311°
2026-04-25 03:40 39.34398 -76.99797 20800 ft 392 kts 311°
2026-04-25 03:40 39.36176 -77.02495 21722 ft 395 kts 311°
2026-04-25 03:40 39.37974 -77.05226 22612 ft 399 kts 311°
2026-04-25 03:41 39.39760 -77.07942 23489 ft 403 kts 311°
2026-04-25 03:41 39.41586 -77.10721 24222 ft 407 kts 311°
2026-04-25 03:41 39.43432 -77.13532 24953 ft 410 kts 311°
2026-04-25 03:41 39.45287 -77.16360 25656 ft 414 kts 311°
2026-04-25 03:42 39.47161 -77.19220 26370 ft 418 kts 311°
2026-04-25 03:42 39.49052 -77.22108 27056 ft 422 kts 311°
2026-04-25 03:42 39.50948 -77.25006 27693 ft 427 kts 310°
2026-04-25 03:42 39.52884 -77.27969 28343 ft 431 kts 310°
2026-04-25 03:43 39.54833 -77.30955 29007 ft 435 kts 310°
2026-04-25 03:43 39.56772 -77.33929 29726 ft 437 kts 310°
2026-04-25 03:43 39.58748 -77.36961 30348 ft 439 kts 310°
2026-04-25 03:43 39.60729 -77.40003 30837 ft 442 kts 310°
2026-04-25 03:44 39.62591 -77.43144 31326 ft 444 kts 305°
2026-04-25 03:44 39.64236 -77.46566 31940 ft 443 kts 301°
2026-04-25 03:44 39.65670 -77.50043 32652 ft 441 kts 298°
2026-04-25 03:44 39.66879 -77.53700 33361 ft 438 kts 294°
2026-04-25 03:45 39.67993 -77.57378 33997 ft 437 kts 294°
2026-04-25 03:45 39.69099 -77.61067 34491 ft 436 kts 294°
2026-04-25 03:45 39.70199 -77.64738 34993 ft 434 kts 294°
2026-04-25 03:45 39.71288 -77.68355 35502 ft 433 kts 294°
2026-04-25 03:46 39.72394 -77.72011 35987 ft 431 kts 294°
2026-04-25 03:46 39.73479 -77.75590 36481 ft 430 kts 294°
2026-04-25 03:46 39.74581 -77.79223 36980 ft 428 kts 294°
2026-04-25 03:46 39.75661 -77.82786 37443 ft 427 kts 294°
2026-04-25 03:47 39.76752 -77.86388 37873 ft 426 kts 294°
2026-04-25 03:47 39.77847 -77.90006 37867 ft 431 kts 294°
2026-04-25 03:47 39.80030 -77.97246 37839 ft 428 kts 293°
2026-04-25 03:48 39.82191 -78.04399 37863 ft 424 kts 295°
2026-04-25 03:48 39.85021 -78.11134 37854 ft 422 kts 304°
2026-04-25 03:49 39.88561 -78.17203 37869 ft 422 kts 310°
2026-04-25 03:49 39.92390 -78.22967 37874 ft 423 kts 311°
2026-04-25 03:50 39.96209 -78.28776 37861 ft 424 kts 310°
2026-04-25 03:50 40.00032 -78.34641 37863 ft 425 kts 310°
2026-04-25 03:51 40.03893 -78.40543 37865 ft 426 kts 310°
2026-04-25 03:51 40.07725 -78.46409 37857 ft 426 kts 310°
2026-04-25 03:52 40.11555 -78.52287 37892 ft 426 kts 310°
2026-04-25 03:52 40.15399 -78.58199 37882 ft 426 kts 310°
2026-04-25 03:53 40.18594 -78.63122 37880 ft 426 kts 310°
2026-04-25 03:53 40.23055 -78.70008 37858 ft 425 kts 310°
2026-04-25 03:54 40.26873 -78.75914 37908 ft 426 kts 310°
2026-04-25 03:54 40.30094 -78.80841 37918 ft 426 kts 313°
2026-04-25 03:55 40.34469 -78.86060 37926 ft 428 kts 322°
2026-04-25 03:55 40.39333 -78.90614 37927 ft 429 kts 323°
2026-04-25 03:56 40.44211 -78.95131 37908 ft 428 kts 323°
2026-04-25 03:56 40.49061 -78.99655 37864 ft 427 kts 323°
2026-04-25 03:57 40.53905 -79.04202 37880 ft 426 kts 323°
2026-04-25 03:57 40.58692 -79.08705 37871 ft 426 kts 322°
2026-04-25 03:58 40.63524 -79.13262 37891 ft 425 kts 322°
2026-04-25 03:58 40.68321 -79.17798 37886 ft 425 kts 322°
2026-04-25 03:59 40.73115 -79.22337 37874 ft 425 kts 322°
2026-04-25 03:59 40.77911 -79.26885 37861 ft 425 kts 322°
2026-04-25 04:00 40.82724 -79.31458 37839 ft 425 kts 322°
2026-04-25 04:00 40.87512 -79.36015 37852 ft 424 kts 322°
2026-04-25 04:01 40.92289 -79.40572 37834 ft 424 kts 322°
2026-04-25 04:01 40.97086 -79.45154 37824 ft 424 kts 322°
2026-04-25 04:02 41.01868 -79.49734 37822 ft 425 kts 322°
2026-04-25 04:02 41.06662 -79.54329 37830 ft 426 kts 322°
2026-04-25 04:03 41.11447 -79.58925 37836 ft 427 kts 322°
2026-04-25 04:03 41.16285 -79.63581 37824 ft 428 kts 321°
2026-04-25 04:04 41.21075 -79.68200 37817 ft 428 kts 321°
2026-04-25 04:04 41.25905 -79.72866 37818 ft 427 kts 321°
2026-04-25 04:05 41.30294 -79.77112 37814 ft 427 kts 321°
2026-04-25 04:05 41.35083 -79.81753 37812 ft 427 kts 321°
2026-04-25 04:06 41.39864 -79.86397 37811 ft 427 kts 321°
2026-04-25 04:06 41.44680 -79.91082 37807 ft 423 kts 321°
2026-04-25 04:07 41.47014 -79.93355 37524 ft 418 kts 321°
2026-04-25 04:07 41.49356 -79.95639 36980 ft 416 kts 321°
2026-04-25 04:07 41.51696 -79.97924 36312 ft 415 kts 321°
2026-04-25 04:07 41.54026 -80.00202 35662 ft 414 kts 321°
2026-04-25 04:08 41.56327 -80.02452 35122 ft 412 kts 321°
2026-04-25 04:08 41.58648 -80.04723 34563 ft 410 kts 320°
2026-04-25 04:08 41.60928 -80.06958 34007 ft 408 kts 320°
2026-04-25 04:08 41.63220 -80.09206 33434 ft 407 kts 320°
2026-04-25 04:09 41.65503 -80.11446 32826 ft 404 kts 320°
2026-04-25 04:09 41.67742 -80.13646 32288 ft 402 kts 320°
2026-04-25 04:09 41.69991 -80.15857 31745 ft 399 kts 321°
2026-04-25 04:09 41.72235 -80.18066 31203 ft 397 kts 320°
2026-04-25 04:10 41.74436 -80.20234 30681 ft 395 kts 320°
2026-04-25 04:10 41.76656 -80.22423 30161 ft 393 kts 320°
2026-04-25 04:10 41.78837 -80.24574 29604 ft 392 kts 320°
2026-04-25 04:10 41.81035 -80.26745 29004 ft 390 kts 320°
2026-04-25 04:11 41.85383 -80.31046 27922 ft 385 kts 320°
2026-04-25 04:11 41.87537 -80.33178 27417 ft 383 kts 320°
2026-04-25 04:11 41.89654 -80.35277 26911 ft 381 kts 321°
2026-04-25 04:12 41.91784 -80.37388 26417 ft 379 kts 321°
2026-04-25 04:12 41.93908 -80.39497 25922 ft 377 kts 321°
2026-04-25 04:12 41.95994 -80.41570 25423 ft 375 kts 321°
2026-04-25 04:12 41.98089 -80.43654 24943 ft 373 kts 321°
2026-04-25 04:13 42.00179 -80.45733 24460 ft 372 kts 321°
2026-04-25 04:13 42.02261 -80.47808 23968 ft 371 kts 321°
2026-04-25 04:13 42.04311 -80.49852 23480 ft 370 kts 321°
2026-04-25 04:13 42.06388 -80.51924 22928 ft 369 kts 321°
2026-04-25 04:14 42.08433 -80.53965 22420 ft 367 kts 320°
2026-04-25 04:14 42.10486 -80.56016 21929 ft 365 kts 320°
2026-04-25 04:14 42.12534 -80.58065 21461 ft 363 kts 320°
2026-04-25 04:14 42.14529 -80.60062 20993 ft 361 kts 320°
2026-04-25 04:15 42.16553 -80.62090 20530 ft 359 kts 320°
2026-04-25 04:15 42.18539 -80.64082 20073 ft 358 kts 320°
2026-04-25 04:15 42.20544 -80.66094 19613 ft 357 kts 320°
2026-04-25 04:15 42.22518 -80.68077 19159 ft 357 kts 320°
2026-04-25 04:16 42.24511 -80.70080 18711 ft 356 kts 321°
2026-04-25 04:16 42.26504 -80.72085 18227 ft 357 kts 321°
2026-04-25 04:16 42.28500 -80.74094 17723 ft 357 kts 321°
2026-04-25 04:16 42.30504 -80.76079 17229 ft 356 kts 321°
2026-04-25 04:17 42.32496 -80.78004 16826 ft 353 kts 322°
2026-04-25 04:17 42.34501 -80.79929 16375 ft 351 kts 322°
2026-04-25 04:17 42.36473 -80.81823 15921 ft 350 kts 322°
2026-04-25 04:17 42.38471 -80.83746 15455 ft 350 kts 322°
2026-04-25 04:18 42.40453 -80.85658 15011 ft 349 kts 321°
2026-04-25 04:18 42.42432 -80.87572 14575 ft 349 kts 321°
2026-04-25 04:18 42.44387 -80.89465 14119 ft 349 kts 321°
2026-04-25 04:18 42.46375 -80.91392 13665 ft 349 kts 321°
2026-04-25 04:19 42.48324 -80.93284 13159 ft 349 kts 321°
2026-04-25 04:19 42.50299 -80.95202 12681 ft 349 kts 321°
2026-04-25 04:19 42.52271 -80.97119 12227 ft 348 kts 321°
2026-04-25 04:19 42.54237 -80.99032 11768 ft 346 kts 321°
2026-04-25 04:20 42.56179 -81.00924 11324 ft 345 kts 321°
2026-04-25 04:20 42.58137 -81.02832 10874 ft 345 kts 320°
2026-04-25 04:20 42.60070 -81.04717 10467 ft 343 kts 320°
2026-04-25 04:20 42.61984 -81.06583 10314 ft 332 kts 320°
2026-04-25 04:21 42.63800 -81.08349 10139 ft 307 kts 320°
2026-04-25 04:21 42.65472 -81.09975 10014 ft 285 kts 320°
2026-04-25 04:21 42.67028 -81.11494 9787 ft 277 kts 319°
2026-04-25 04:21 42.68588 -81.13027 9483 ft 276 kts 319°
2026-04-25 04:22 42.70155 -81.14568 9160 ft 276 kts 319°
2026-04-25 04:22 42.71694 -81.16081 8848 ft 275 kts 319°
2026-04-25 04:22 42.73255 -81.17616 8528 ft 275 kts 319°
2026-04-25 04:22 42.74810 -81.19144 8213 ft 274 kts 319°
2026-04-25 04:23 42.76339 -81.20646 7914 ft 274 kts 319°
2026-04-25 04:23 42.77893 -81.22174 7596 ft 273 kts 319°
2026-04-25 04:23 42.79420 -81.23676 7300 ft 272 kts 320°
2026-04-25 04:23 42.80957 -81.25189 6977 ft 272 kts 320°
2026-04-25 04:24 42.82495 -81.26702 6670 ft 271 kts 320°
2026-04-25 04:24 42.84009 -81.28195 6370 ft 270 kts 320°
2026-04-25 04:24 42.85522 -81.29686 6043 ft 269 kts 320°
2026-04-25 04:24 42.87005 -81.31145 5772 ft 253 kts 320°
2026-04-25 04:25 42.88382 -81.32500 5664 ft 234 kts 320°
2026-04-25 04:25 42.89638 -81.33736 5559 ft 216 kts 320°
2026-04-25 04:25 42.90829 -81.34911 5476 ft 209 kts 319°
2026-04-25 04:25 42.92036 -81.36107 5422 ft 218 kts 321°
2026-04-25 04:26 42.93452 -81.36890 5156 ft 226 kts 346°
2026-04-25 04:26 42.95005 -81.37227 4926 ft 226 kts 345°
2026-04-25 04:26 42.96567 -81.37628 4669 ft 229 kts 345°
2026-04-25 04:26 42.98123 -81.38010 4356 ft 226 kts 351°
2026-04-25 04:27 42.99656 -81.37621 4077 ft 230 kts 26°
2026-04-25 04:27 43.00820 -81.36084 3836 ft 237 kts 60°
2026-04-25 04:27 43.01352 -81.33997 3617 ft 234 kts 77°
2026-04-25 04:27 43.01659 -81.31816 3283 ft 230 kts 79°
2026-04-25 04:28 43.01935 -81.29725 3013 ft 213 kts 80°
2026-04-25 04:28 43.02191 -81.27851 3033 ft 193 kts 79°
2026-04-25 04:28 43.02444 -81.26042 3040 ft 188 kts 79°
2026-04-25 04:28 43.02675 -81.24403 3009 ft 168 kts 79°
2026-04-25 04:29 43.02886 -81.22879 2909 ft 160 kts 79°
2026-04-25 04:29 43.03093 -81.21420 2585 ft 151 kts 80°
2026-04-25 04:29 43.03296 -81.20000 2003 ft 149 kts 83°
2026-04-25 04:29 43.03462 -81.18674 1494 ft 137 kts 78°
2026-04-25 04:30 43.03640 -81.17500 1295 ft 115 kts 80°
2026-04-25 04:30 43.03814 -81.16358 1292 ft 121 kts 79°
2026-04-25 04:30 43.03959 -81.15093 1955 ft 163 kts 83°
2026-04-25 04:30 43.04211 -81.13246 2015 ft 214 kts 81°
2026-04-25 04:31 43.04501 -81.11275 2115 ft 213 kts 81°
2026-04-25 04:31 43.04665 -81.09220 2364 ft 223 kts 99°
2026-04-25 04:31 43.04038 -81.07251 2787 ft 233 kts 134°
2026-04-25 04:31 43.02739 -81.05936 3262 ft 239 kts 161°
2026-04-25 04:32 43.01126 -81.05656 3747 ft 235 kts 188°
2026-04-25 04:32 42.99467 -81.05937 4024 ft 242 kts 193°
2026-04-25 04:32 42.97859 -81.06477 4007 ft 237 kts 209°
2026-04-25 04:32 42.96611 -81.07885 4033 ft 236 kts 231°
2026-04-25 04:33 42.95557 -81.09615 3894 ft 237 kts 233°
2026-04-25 04:33 42.94516 -81.11331 3639 ft 234 kts 233°
2026-04-25 04:33 42.93493 -81.13022 3375 ft 227 kts 232°
2026-04-25 04:33 42.92499 -81.14673 3148 ft 222 kts 233°
2026-04-25 04:34 42.91534 -81.16266 3074 ft 210 kts 234°
2026-04-25 04:34 42.90990 -81.18022 3042 ft 217 kts 269°
2026-04-25 04:34 42.91469 -81.19980 3016 ft 218 kts 302°
2026-04-25 04:34 42.92092 -81.21762 2999 ft 209 kts 275°
2026-04-25 04:35 42.92026 -81.23724 3020 ft 209 kts 268°
2026-04-25 04:35 42.92049 -81.25694 3010 ft 209 kts 272°
2026-04-25 04:35 42.92115 -81.27667 3023 ft 205 kts 272°
2026-04-25 04:35 42.92182 -81.29595 3022 ft 205 kts 271°
2026-04-25 04:36 42.92250 -81.31563 3009 ft 207 kts 272°
2026-04-25 04:36 42.92318 -81.33513 3008 ft 207 kts 272°
2026-04-25 04:36 42.92675 -81.35382 2997 ft 207 kts 300°
2026-04-25 04:36 42.93771 -81.36730 3015 ft 219 kts 329°
2026-04-25 04:37 42.95198 -81.37348 3018 ft 212 kts 343°
2026-04-25 04:37 42.96622 -81.37718 3017 ft 209 kts 345°
2026-04-25 04:37 42.98020 -81.38072 3012 ft 202 kts 345°
2026-04-25 04:37 42.99447 -81.38113 3010 ft 215 kts 11°
2026-04-25 04:38 43.00703 -81.37005 3000 ft 217 kts 52°
2026-04-25 04:38 43.01182 -81.35117 3026 ft 208 kts 81°
2026-04-25 04:38 43.01421 -81.33248 3003 ft 189 kts 79°
2026-04-25 04:38 43.01651 -81.31582 2984 ft 168 kts 79°
2026-04-25 04:39 43.01860 -81.30083 2963 ft 158 kts 80°
2026-04-25 04:39 43.02071 -81.28585 2773 ft 159 kts 80°
2026-04-25 04:39 43.02210 -81.27603 2623 ft 156 kts 82°
2026-04-25 04:39 43.02475 -81.25746 2338 ft 142 kts 83°
2026-04-25 04:40 43.02598 -81.24879 2208 ft 138 kts 83°
2026-04-25 04:40 43.02833 -81.23225 2098 ft 129 kts 84°
2026-04-25 04:40 43.02952 -81.22394 1865 ft 137 kts 81°
2026-04-25 04:40 43.03105 -81.21202 1692 ft 115 kts 82°
2026-04-25 04:41 43.03256 -81.20085 1607 ft 123 kts 80°
2026-04-25 04:41 43.03455 -81.18912 1447 ft 129 kts 80°
2026-04-25 04:41 43.03619 -81.17735 1367 ft 125 kts 82°
2026-04-25 04:41 43.03787 -81.16525 1078 ft 132 kts 77°
2026-04-25 04:42 43.03959 -81.15349 926 ft 119 kts 79°
2026-04-25 04:42 43.04073 -81.14483 909 ft 48 kts 80°
2026-04-25 04:42 43.04109 -81.14215 908 ft 20 kts 75°
2026-04-25 04:42 43.04218 -81.14197 911 ft 20 kts 300°
2026-04-25 04:43 43.04157 -81.14357 911 ft 21 kts 221°
2026-04-25 04:43 43.03998 -81.14476 909 ft 29 kts 167°
2026-04-25 04:43 43.03837 -81.14412 910 ft 18 kts 201°
2026-04-25 04:43 43.03752 -81.14535 913 ft 18 kts 225°
2026-04-25 04:44 43.03665 -81.14656 914 ft 18 kts 225°
2026-04-25 04:44 43.03576 -81.14773 916 ft 18 kts 224°
2026-04-25 04:44 43.03487 -81.14891 915 ft 16 kts 224°
2026-04-25 04:44 43.03482 -81.14898 915 ft 0 kts 224°